This is the latest recevied weather packets stored in our database for station/object NR0A-4. If no packets are shown the sender has not sent any weather packets the latest 1 day(s).
| Time | Temp. | Humidity | Pressure | Rain* | Wind** | Luminosity | Snow |
|---|---|---|---|---|---|---|---|
| 1778027704 | 12.78° C | 35% | 1012.4 hPa | 0 mm | 1.34 m/s, 295° | 0 W/m² | - |
| 1778027404 | 12.78° C | 35% | 1012.4 hPa | 0 mm | 1.34 m/s, 280° | 0 W/m² | - |
| 1778027104 | 12.78° C | 35% | 1012.4 hPa | 0 mm | 1.79 m/s, 284° | 0 W/m² | - |
| 1778026805 | 12.78° C | 35% | 1012.4 hPa | 0 mm | 2.24 m/s, 274° | 0 W/m² | - |
| 1778026504 | 12.78° C | 35% | 1012.4 hPa | 0 mm | 2.68 m/s, 266° | 0 W/m² | - |
| 1778026204 | 12.78° C | 35% | 1012.4 hPa | 0 mm | 2.24 m/s, 270° | 0 W/m² | - |
| 1778025904 | 12.78° C | 35% | 1012.4 hPa | 0 mm | 2.24 m/s, 274° | 0 W/m² | - |
| 1778025604 | 12.78° C | 35% | 1012.4 hPa | 0 mm | 1.34 m/s, 277° | 0 W/m² | - |
| 1778025304 | 12.78° C | 35% | 1012.4 hPa | 0 mm | 1.79 m/s, 278° | 0 W/m² | - |
| 1778025004 | 12.78° C | 35% | 1012.4 hPa | 0 mm | 3.13 m/s, 277° | 0 W/m² | - |
| 1778024704 | 12.78° C | 35% | 1012.4 hPa | 0 mm | 2.68 m/s, 276° | 0 W/m² | - |
| 1778024404 | 12.78° C | 35% | 1012.4 hPa | 0 mm | 3.13 m/s, 266° | 0 W/m² | - |
| 1778024104 | 12.78° C | 35% | 1012.4 hPa | 0 mm | 1.79 m/s, 272° | 0 W/m² | - |
| 1778023804 | 12.78° C | 35% | 1012.4 hPa | 0 mm | 2.24 m/s, 284° | 0 W/m² | - |
| 1778023504 | 12.78° C | 35% | 1012.4 hPa | 0 mm | 2.24 m/s, 270° | 0 W/m² | - |
| 1778023204 | 12.78° C | 35% | 1012.4 hPa | 0 mm | 3.13 m/s, 284° | 0 W/m² | - |
| 1778022904 | 12.78° C | 35% | 1012.4 hPa | 0 mm | 3.13 m/s, 273° | 0 W/m² | - |
| 1778022605 | 12.78° C | 35% | 1012.4 hPa | 0 mm | 2.24 m/s, 292° | 0 W/m² | - |
| 1778022304 | 12.78° C | 35% | 1012.4 hPa | 0 mm | 2.24 m/s, 282° | 0 W/m² | - |
| 1778022004 | 12.78° C | 35% | 1012.4 hPa | 0 mm | 2.68 m/s, 280° | 0 W/m² | - |
| 1778021704 | 12.78° C | 35% | 1012.4 hPa | 0 mm | 2.68 m/s, 278° | 0 W/m² | - |
| 1778021404 | 12.78° C | 35% | 1012.4 hPa | 0 mm | 3.13 m/s, 282° | 0 W/m² | - |
| 1778021104 | 12.78° C | 35% | 1012.4 hPa | 0 mm | 2.68 m/s, 285° | 0 W/m² | - |
| 1778020804 | 12.78° C | 35% | 1012.4 hPa | 0 mm | 2.68 m/s, 281° | 0 W/m² | - |
| 1778020504 | 12.78° C | 35% | 1012.4 hPa | 0 mm | 2.68 m/s, 289° | 0 W/m² | - |
* Rain latest hour (hover to see other rain measurements)
** Current wind speed in m/s (hover to see current wind gust speed)